sat.trackr.live / text

‹ back to catalog

STARLINK-34520

NORAD 64486 · 2025-133Q

PAYLOAD ACTIVE UNKNOWN

§ Identity

Operator
Country
US
Launch date
2025-06-23
Launch site
AFETR
Launch vehicle
Mass (kg)
RCS (m²)

Purposes: comms

External: N2YO · Heavens-Above · Gunter

§ Orbital elements

Epoch: 2026-09-20T06:29:56.380416Z

Period
93.85 min
Inclination
53.1599°
Eccentricity
0.0001718
Mean motion
15.34408221 rev/d
Perigee alt
461.5 km
Apogee alt
463.9 km
Semi-major
6,840.8 km
B*
4.6965e-4
RAAN
290.5770°
Arg perigee
91.6325°
Mean anomaly
268.4875°
Rev number
7,101

§ Raw data

STARLINK-345201 64486U 25133Q   26263.27079144  .00015528  00000+0  46965-3 0  99982 64486  53.1599 290.5770 0001718  91.6325 268.4875 15.34408221 71014

JSON: /api/v1/satellites/64486 · /tle

For live sub-satellite position, see the globe view (requires WebGL).

§ Visibility from observer

Set your observer location to see the next 7 days of passes ≥ 10°. The values pass through the URL so the page stays shareable.

No JS? Fill the form by hand. The geolocation button needs JavaScript.